Location: Mentone
(34.5413°N, 85.5351°W)
Time: 08:34:45
(UTC-05:00)

Transit 2A Rocket - Visible Passes

Search period start: 21 October 2014 00:00
Search period end: 31 October 2014 00:00
Orbit: 591 x 917 km, 66.7° (Epoch: 19 October)

Date Brightness Start Highest point End Pass type
(mag) Time Alt. Az. Time Alt. Az. Time Alt. Az.
21 Oct 7.3 04:17:04 16° SSE 04:17:04 16° SSE 04:18:14 10° SSE visible
21 Oct 5.8 18:39:34 10° SW 18:43:38 42° WNW 18:47:56 10° NNE visible
23 Oct 7.3 19:00:35 10° W 19:03:08 15° NW 19:05:46 10° NNW visible
24 Oct 6.7 18:17:26 10° WSW 18:21:06 26° NW 18:24:57 10° N visible
